This demonstration page uses our WeatherBlox Daily Observations layout. Learn more.

40.92945, -100.16068

Hourly Observations for December 24, 2015

Temp ( °F °C ) Dew Point ( °F °C ) Humidity (%) Winds ( mph kmh ) Pressure ( in mb ) Visibility ( mi km ) Precip ( " mm )
12:15 am 00:15 Partly Cloudy 29 -1.5 26 -3.5 86 86 NNW 7 11 29.74 1007 10 16.0934 N/A
12:35 am 00:35 Mostly Cloudy 29 -1.5 26 -3.6 86 86 NW 6 9 29.74 1007 10 16.0934 N/A
12:55 am 00:55 Cloudy 30 -1 26 -3.2 85 85 NW 7 11 29.74 1007 10 16.0934 N/A
1:15 am 01:15 Cloudy 31 -0.8 27 -3 85 85 NNW 8 13 29.77 1008 10 16.0934 N/A
1:35 am 01:35 Cloudy with Light Snow 31 -0.5 27 -3 83 83 NNW 7 11 29.77 1008 7 11.26538 N/A
1:55 am 01:55 Cloudy with Snow 30 -0.9 27 -3 86 86 Calm 29.8 1009 1 1.60934 N/A
2:15 am 02:15 Cloudy with Snow 30 -1.2 28 -2.5 91 91 Calm 29.8 1009 1 1.60934 N/A
2:35 am 02:35 Cloudy with Light Snow 30 -1.3 28 -2.3 93 93 Calm 29.8 1009 1.5 2.41401 0.01 0.254
2:55 am 02:55 Cloudy with Light Snow 29 -1.5 28 -2.3 94 94 SE 3 6 29.8 1009 3 4.82802 0.01 0.254
3:15 am 03:15 Cloudy with Light Snow 30 -1.3 28 -2.1 94 94 SSE 5 7 29.8 1009 5 8.0467 0.01 0.254
3:35 am 03:35 Cloudy with Light Snow 29 -1.5 28 -2.2 95 95 SE 6 9 29.8 1009 3 4.82802 0.01 0.254
3:55 am 03:55 Cloudy with Light Snow 30 -1.3 28 -2.1 94 94 SE 6 9 29.8 1009 2.5 4.02335 0.01 0.254
4:15 am 04:15 Cloudy with Light Snow 29 -1.5 28 -2.2 95 95 SE 9 15 29.8 1009 5 8.0467 N/A
4:35 am 04:35 Cloudy with Light Snow 29 -1.5 28 -2.3 94 94 SE 12 19 29.8 1009 10 16.0934 N/A
4:55 am 04:55 Cloudy 29 -1.5 28 -2.2 95 95 SE 8 13 29.8 1009 10 16.0934 N/A
5:15 am 05:15 Cloudy 29 -1.6 28 -2.4 94 94 SE 6 9 29.8 1009 10 16.0934 N/A
5:35 am 05:35 Cloudy 29 -1.5 28 -2.2 95 95 SE 6 9 29.8 1009 10 16.0934 N/A
5:55 am 05:55 Cloudy 29 -1.7 28 -2.5 94 94 SE 5 7 29.8 1009 10 16.0934 0 0
6:15 am 06:15 Cloudy 29 -1.8 27 -2.6 94 94 Calm 29.8 1009 10 16.0934 N/A
6:35 am 06:35 Cloudy 29 -1.8 28 -2.5 95 95 Calm 29.8 1009 10 16.0934 N/A
6:55 am 06:55 Cloudy 29 -1.5 28 -2.2 95 95 S 5 7 29.8 1009 10 16.0934 N/A
7:15 am 07:15 Cloudy 29 -1.5 28 -2.1 96 96 S 3 6 29.83 1010 10 16.0934 N/A
7:35 am 07:35 Cloudy with Mist and Fog 30 -1.2 28 -2 94 94 SSW 6 9 29.83 1010 3 4.82802 0.01 0.254
7:55 am 07:55 Cloudy with Mist and Fog 30 -1.2 28 -2 94 94 SW 5 7 29.83 1010 1.25 2.011675 0.01 0.254
8:15 am 08:15 Cloudy with Freezing Fog 30 -1.3 29 -1.9 96 96 S 5 7 29.85 1011 0.5 0.80467 N/A
8:35 am 08:35 Cloudy with Mist and Fog 30 -1.3 29 -1.9 96 96 S 3 6 29.85 1011 1 1.60934 N/A
8:55 am 08:55 Cloudy with Mist and Fog 30 -1 29 -1.6 96 96 SSW 3 6 29.85 1011 4 6.43736 0 0
9:15 am 09:15 Mostly Cloudy 29 -1.9 28 -2.5 96 96 W 5 7 29.91 1013 10 16.0934 N/A
9:35 am 09:35 Sunny 28 -2.5 27 -3 96 96 Calm 29.91 1013 10 16.0934 N/A
9:55 am 09:55 Sunny 28 -2.1 27 -3 94 94 W 5 7 29.94 1014 10 16.0934 N/A
10:15 am 10:15 Sunny 29 -1.7 26 -3.5 88 88 WNW 8 13 29.94 1014 10 16.0934 N/A
10:35 am 10:35 Sunny 29 -1.5 25 -4 83 83 WNW 8 13 29.97 1015 10 16.0934 N/A
10:55 am 10:55 Sunny 29 -1.5 25 -4 83 83 W 8 13 29.97 1015 10 16.0934 N/A
11:15 am 11:15 Sunny 30 -1 26 -3.5 83 83 WNW 12 19 30 1016 10 16.0934 N/A
11:35 am 11:35 Mostly Cloudy 31 -0.5 26 -3.1 83 83 WNW 9 15 29.97 1015 10 16.0934 N/A
11:55 am 11:55 Mostly Cloudy 32 0 28 -2.2 85 85 WNW 12 19 29.97 1015 10 16.0934 0 0
12:15 pm 12:15 Mostly Cloudy 32 0 29 -1.5 90 90 WNW 15 24 29.94 1014 10 16.0934 N/A
12:35 pm 12:35 Sunny 34 0.9 30 -1.2 86 86 WNW 14 22 29.94 1014 10 16.0934 N/A
12:55 pm 12:55 Sunny 34 1 29 -1.7 82 82 NW 12 19 29.94 1014 10 16.0934 N/A
1:15 pm 13:15 Sunny 34 1 29 -1.6 83 83 WNW 8 13 29.97 1015 10 16.0934 N/A
1:35 pm 13:35 Sunny 35 1.5 29 -1.4 81 81 W 7 11 29.97 1015 10 16.0934 N/A
1:55 pm 13:55 Sunny 35 1.6 30 -1.3 81 81 W 5 7 29.97 1015 10 16.0934 N/A
2:15 pm 14:15 Sunny 36 2 29 -1.7 77 77 W 3 6 29.97 1015 10 16.0934 N/A
2:35 pm 14:35 Sunny 36 2.4 29 -1.7 75 75 Calm 29.97 1015 10 16.0934 N/A
2:55 pm 14:55 Sunny 36 2.4 29 -1.7 75 75 S 5 7 29.97 1015 10 16.0934 N/A
3:15 pm 15:15 Sunny 37 2.5 29 -1.5 75 75 S 7 11 29.94 1014 10 16.0934 N/A
3:35 pm 15:35 Sunny 37 2.5 30 -1.3 76 76 SSE 7 11 29.94 1014 10 16.0934 N/A
3:55 pm 15:55 Sunny 37 2.6 30 -1.2 76 76 SSE 9 15 29.94 1014 10 16.0934 N/A
4:15 pm 16:15 Sunny 37 2.9 29 -1.4 74 74 SSW 7 11 29.94 1014 10 16.0934 N/A
4:35 pm 16:35 Sunny 37 2.5 29 -1.9 73 73 SSW 7 11 29.97 1015 10 16.0934 N/A
4:55 pm 16:55 Sunny 35 1.4 28 -2.1 78 78 S 6 9 30 1016 10 16.0934 N/A
5:15 pm 17:15 Sunny 32 -0.1 27 -3 81 81 S 7 11 29.97 1015 10 16.0934 N/A
5:35 pm 17:35 Clear 31 -0.8 26 -3.1 85 85 SSW 8 13 30.03 1017 10 16.0934 N/A
5:55 pm 17:55 Clear 32 -0.1 25 -4 75 75 SW 9 15 30 1016 10 16.0934 N/A
6:15 pm 18:15 Clear 29 -1.5 24 -4.5 80 80 SSW 8 13 30.06 1018 10 16.0934 N/A
6:35 pm 18:35 Clear 30 -1.3 24 -4.6 79 79 SW 7 11 30.06 1018 10 16.0934 N/A
6:55 pm 18:55 Clear 29 -1.5 24 -4.5 80 80 SSW 8 13 30.06 1018 10 16.0934 N/A
7:15 pm 19:15 Clear 28 -2.3 23 -5.2 81 81 WSW 7 11 30.09 1019 10 16.0934 N/A
7:35 pm 19:35 Clear 27 -2.8 22 -5.5 82 82 WSW 6 9 30.12 1020 10 16.0934 N/A
7:55 pm 19:55 Clear 26 -3.4 21 -6.1 82 82 WSW 6 9 30.12 1020 10 16.0934 N/A
8:15 pm 20:15 Clear 26 -3.5 20 -6.7 79 79 WSW 5 7 30.12 1020 10 16.0934 N/A
8:35 pm 20:35 Clear 25 -3.8 19 -7 79 79 WSW 3 6 30.12 1020 10 16.0934 N/A
8:55 pm 20:55 Clear 26 -3.2 20 -6.6 78 78 W 3 6 30.12 1020 10 16.0934 N/A
9:15 pm 21:15 Clear 25 -4 18 -7.6 76 76 W 5 7 30.15 1021 10 16.0934 N/A
9:35 pm 21:35 Clear 26 -3.5 19 -7.2 76 76 Calm 30.15 1021 10 16.0934 N/A
9:55 pm 21:55 Clear 22 -5.3 18 -7.8 83 83 NNW 3 6 30.15 1021 10 16.0934 N/A
10:15 pm 22:15 Clear 21 -6 17 -8.2 85 85 NW 3 6 30.18 1022 10 16.0934 N/A
10:35 pm 22:35 Clear 21 -6 18 -8 86 86 Calm 30.18 1022 10 16.0934 N/A
10:55 pm 22:55 Clear 20 -6.5 17 -8.6 85 85 SSE 12 19 30.21 1023 10 16.0934 N/A
11:15 pm 23:15 Clear 24 -4.6 20 -6.8 85 85 SSE 6 9 30.21 1023 10 16.0934 N/A
11:35 pm 23:35 Clear 23 -5.2 18 -7.7 83 83 S 7 11 30.21 1023 10 16.0934 N/A
11:55 pm 23:55 Clear 23 -5.1 19 -7.3 85 85 SSW 6 9 30.21 1023 10 16.0934 N/A

Powered by AerisWeather